Meteopurmerend
purmerend
Purmerend - Baaienwijk



My webcam  My webcam


Onweer radar Meer informatie blitzortung!


Regen radar Meer informatie rain snow radar


Bezoek onze andere website:

CandyAppleRed WebdesignWebdesign Purmerend Candy Apple Red

MeteopurmerendBlog

Template documentation
and downloads



Het weer levert geen direct gevaar op.    Er zijn geen waarschuwingen afgegeven.

15 daagse weersverwachting Kangasala (FI)

  • Overzicht
  • Per uur
  • 15 dagen
  • Extra
  • Vergelijk
  • Kaarten
  • Dagkaart
  • Meer »
  • Info
  • Statistieken
  • Directe link
    Temp 6h Neerslag Wind  
 04:48     22:14    Daglengte: 17:26 Vandaag
09:00
23°
 
3
15:00
21°
3.4 mm
5
21:00
20°
10.3 mm
4
warningclass
 04:51     22:12    Daglengte: 17:21 Morgen
03:00
18°
5.9 mm
4
09:00
19°
1.6 mm
4
15:00
19°
11.6 mm
5
warningclass
21:00
19°
3.7 mm
5
 04:53     22:09    Daglengte: 17:16 Vrijdag 30 Jul
03:00
17°
 
5
09:00
17°
4.2 mm
6
15:00
18°
 
4
21:00
17°
 
3
 04:56     22:06    Daglengte: 17:10 Zaterdag 31 Jul
03:00
15°
 
6
Locatie info
Region: Pirkanmaa
Latitude: 61.4637°N
Longitude: 24.0721°E
100 masl
Postcode: 36200
Temp/Neerslag /Baro Onweer/Dauwpunt
    Temp Baro 1h Neerslag Dauwpunt Wind UV Bewolking  
 04:48     22:14    Daglengte: 17:26 Vandaag
07:00
21°
1009.8 hPa   18.2°
3
Windvlaag: -1.1 m/s
32%
08:00
22°
1009.4 hPa   17.2°
3
Windvlaag: -0.2 m/s
32%
09:00
23°
1009.0 hPa   15.6°
3
Windvlaag: 1.6 m/s
43%
10:00
24°
1008.7 hPa   15.3°
3
Windvlaag: 2.2 m/s
67%
11:00
25°
1008.2 hPa   14.5°
3
Windvlaag: 3 m/s
81%
12:00
24°
1007.7 hPa
60%
18.7°
4
Windvlaag: 4.7 m/s
85%
13:00
23°
1007.8 hPa
76%
20.6°
5
Windvlaag: 7.9 m/s
84%
14:00
21°
1007.3 hPa 1.4 mm
79%
19.1°
4
Windvlaag: 7.2 m/s
86%
15:00
21°
1006.8 hPa 2.0 mm
82%
17.5°
5
Windvlaag: 6.6 m/s
86%
16:00
21°
1006.1 hPa 2.1 mm
82%
16.1°
5
Windvlaag: 3.9 m/s
77%
17:00
21°
1005.5 hPa 2.3 mm
82%
16.1°
5
Windvlaag: 1.2 m/s
86% warningclass
18:00
21°
1004.9 hPa 2.3 mm
81%
16.3°
5
Windvlaag: 0.5 m/s
51% warningclass
19:00
21°
1004.4 hPa 1.7 mm
82%
17.9°
4
Windvlaag: 0.2 m/s
73% warningclass
20:00
20°
1003.8 hPa
82%
18.9°
4
Windvlaag: 0.1 m/s
58% warningclass
21:00
20°
1003.5 hPa 1.9 mm
82%
18.9°
4
Windvlaag: 1.2 m/s
48% warningclass
22:00
20°
1003.1 hPa 2.9 mm
81%
18.9°
4
Windvlaag: 2.1 m/s
48%
23:00
19°
1002.8 hPa
26%
18.5°
4
Windvlaag: 6.4 m/s
61%
 04:51     22:12    Daglengte: 17:21 Morgen
00:00
19°
1002.4 hPa 1.6 mm
65%
18.3°
4
Windvlaag: 8.3 m/s
82%
01:00
19°
1002.1 hPa 1.4 mm
68%
18.0°
4
Windvlaag: 9.1 m/s
83%
02:00
18°
1001.5 hPa
68%
17.9°
4
Windvlaag: 8.7 m/s
65%
03:00
18°
1001.1 hPa
14%
17.9°
4
Windvlaag: 8.6 m/s
65%
04:00
18°
1000.5 hPa
16%
17.9°
4
Windvlaag: 8.3 m/s
58%
05:00
18°
1000.1 hPa
29%
17.8°
4
Windvlaag: 8 m/s
34%
06:00
18°
999.9 hPa
62%
17.8°
4
Windvlaag: 8.2 m/s
49%
07:00
18°
999.5 hPa
62%
17.9°
4
Windvlaag: 7.8 m/s
49%
08:00
19°
999.1 hPa
82%
17.7°
4
Windvlaag: 7.8 m/s
19%
09:00
19°
998.7 hPa 1.6 mm
82%
17.4°
4
Windvlaag: 7.8 m/s
63%
10:00
20°
998.4 hPa 1.6 mm
82%
16.3°
4
Windvlaag: 8.3 m/s
85% warningclass
11:00
20°
998.2 hPa 2.0 mm
82%
15.4°
5
Windvlaag: 10.3 m/s
86% warningclass
12:00
20°
998.2 hPa 2.3 mm
82%
15.2°
5
Windvlaag: 10.4 m/s
86% warningclass
13:00
20°
998.0 hPa 1.7 mm
82%
15.7°
5
Windvlaag: 8.2 m/s
86%
14:00
20°
997.9 hPa 1.8 mm
82%
18.0°
5
Windvlaag: 7.1 m/s
85% warningclass
15:00
19°
997.5 hPa 2.1 mm
82%
17.8°
5
Windvlaag: 5.9 m/s
76% warningclass
16:00
19°
997.3 hPa 3.7 mm
82%
17.5°
5
Windvlaag: 6 m/s
73% warningclass
17:00
20°
997.0 hPa
82%
17.6°
5
Windvlaag: 6.6 m/s
40%
18:00
20°
996.9 hPa
82%
17.3°
6
Windvlaag: 6.9 m/s
61%
19:00
20°
996.5 hPa
82%
17.2°
5
Windvlaag: 6.7 m/s
67%
20:00
20°
996.2 hPa
82%
17.1°
5
Windvlaag: 7.8 m/s
27%
21:00
19°
996.0 hPa
81%
17.2°
5
Windvlaag: 8.3 m/s
17%
22:00
19°
995.9 hPa
35%
17.4°
5
Windvlaag: 8.4 m/s
14%
23:00
18°
995.8 hPa
23%
17.2°
5
Windvlaag: 8.9 m/s
14%
 04:53     22:09    Daglengte: 17:16 Vrijdag 30 Jul
00:00
18°
995.0 hPa
39%
16.7°
6
Windvlaag: 9.2 m/s
56%
01:00
18°
994.7 hPa
37%
16.9°
6
Windvlaag: 9.6 m/s
62%
02:00
17°
994.7 hPa
88%
16.6°
5
Windvlaag: 9.8 m/s
58%
03:00
17°
994.1 hPa
42%
16.2°
5
Windvlaag: 9.9 m/s
56%
04:00
17°
994.1 hPa
92%
15.5°
5
Windvlaag: 9.6 m/s
36%
05:00
16°
993.5 hPa
51%
15.1°
5
Windvlaag: 9.6 m/s
47%
06:00
16°
993.6 hPa
99%
13.9°
5
Windvlaag: 9.1 m/s
55%
07:00
16°
993.5 hPa
89%
12.9°
5
Windvlaag: 9 m/s
54%
08:00
17°
992.9 hPa
28%
10.7°
5
Windvlaag: 8.6 m/s
37%
09:00
17°
992.8 hPa 4.2 mm
22%
11.9°
6
Windvlaag: 11.4 m/s
65%
10:00
17°
991.6 hPa
21%
13.1°
5
Windvlaag: 9.1 m/s
15%
11:00
18°
991.4 hPa
21%
14.6°
6
Windvlaag: 13.3 m/s
17%
12:00
18°
991.1 hPa
22%
13.7°
5
Windvlaag: 11.5 m/s
14%
13:00
19°
990.9 hPa
29%
13.9°
5
Windvlaag: 10 m/s
20%
14:00
18°
990.9 hPa
100%
15.8°
5
Windvlaag: 12.6 m/s
20%
15:00
18°
990.7 hPa
99%
16.5°
4
Windvlaag: 11.3 m/s
76%
16:00
18°
990.2 hPa
100%
16.9°
4
Windvlaag: 10.4 m/s
92%
17:00
18°
990.0 hPa
94%
15.8°
4
Windvlaag: 11.2 m/s
90%
18:00
18°
989.7 hPa
32%
16.5°
4
Windvlaag: 13.4 m/s
92%
19:00
18°
989.3 hPa
44%
17.3°
3
Windvlaag: 8 m/s
99%
20:00
18°
989.1 hPa
83%
16.7°
3
Windvlaag: 11.1 m/s
86%
21:00
17°
988.8 hPa
28%
15.8°
3
Windvlaag: 12.9 m/s
66%
22:00
16°
988.6 hPa
35%
15.6°
3
Windvlaag: 11.7 m/s
31%
23:00
16°
988.5 hPa
32%
15.5°
3
Windvlaag: 7.3 m/s
20%
 04:56     22:06    Daglengte: 17:10 Zaterdag 31 Jul
00:00
15°
988.2 hPa
22%
15.1°
3
Windvlaag: 1.8 m/s
20%
01:00
15°
988.1 hPa
23%
14.6°
4
Windvlaag: 8.3 m/s
20%
02:00
15°
988.3 hPa
31%
14.1°
5
Windvlaag: 10.9 m/s
67%
03:00
15°
988.7 hPa
64%
13.7°
6
Windvlaag: 12.8 m/s
73%
Temp/Neerslag /Baro Onweer/Dauwpunt
    Temp Baro Neerslag Dauwpunt Wind Bewolking  
 04:48     22:14    Daglengte: 17:26 Vandaag
09:00
23°
1009.0 hPa   15.6°
3
43%
12:00
24°
1007.7 hPa   18.7°
4
85%
15:00
21°
1006.8 hPa 3.4 mm 17.5°
5
86%
18:00
21°
1004.9 hPa 6.7 mm 16.3°
5
51% warningclass
21:00
20°
1003.5 hPa 3.6 mm 18.9°
4
48% warningclass
 04:51     22:12    Daglengte: 17:21 Morgen
00:00
19°
1002.4 hPa 4.5 mm 18.3°
4
82%
03:00
18°
1001.1 hPa 1.4 mm 17.9°
4
65%
06:00
18°
999.9 hPa   17.8°
4
49%
09:00
19°
998.7 hPa 1.6 mm 17.4°
4
63%
12:00
20°
998.2 hPa 6.0 mm 15.2°
5
86% warningclass
15:00
19°
997.5 hPa 5.6 mm 17.8°
5
76% warningclass
18:00
20°
996.9 hPa 3.7 mm 17.3°
6
61%
21:00
19°
996.0 hPa   17.2°
5
17%
 04:53     22:09    Daglengte: 17:16 Vrijdag 30 Jul
00:00
18°
995.0 hPa   16.7°
6
56%
03:00
17°
994.1 hPa   16.2°
5
56%
06:00
16°
993.6 hPa   13.9°
5
55%
09:00
17°
992.8 hPa 4.2 mm 11.9°
6
65%
12:00
18°
991.1 hPa   13.7°
5
14%
15:00
18°
990.7 hPa   16.5°
4
76%
18:00
18°
989.7 hPa   16.5°
4
92%
21:00
17°
988.8 hPa   15.8°
3
66%
 04:56     22:06    Daglengte: 17:10 Zaterdag 31 Jul
00:00
15°
988.2 hPa   15.1°
3
20%
03:00
15°
988.7 hPa   13.7°
6
73%
06:00
14°
989.6 hPa 29.6 mm 13.2°
5
1%
09:00
14°
992.7 hPa 29.8 mm 12.8°
5
1%
12:00
19°
994.3 hPa 30.0 mm 12.5°
5
1%
15:00
19°
996.1 hPa 30.1 mm 11.8°
4
1%
18:00
19°
997.2 hPa 30.2 mm 11.9°
3
1%
21:00
17°
997.9 hPa 30.2 mm 12.2°
3
1%
 04:58     22:04    Daglengte: 17:06 Zondag 01 Aug
00:00
13°
998.8 hPa 30.2 mm 12.2°
2
1%
03:00
12°
998.3 hPa 30.2 mm 11.2°
1
1%
06:00
13°
997.3 hPa 30.2 mm 11.7°
2
1%
09:00
16°
996.0 hPa 30.2 mm 12.5°
3
1%
12:00
17°
995.3 hPa 30.8 mm 13.5°
2
1%
15:00
18°
995.0 hPa 33.4 mm 14.2°
1
1%
18:00
17°
995.4 hPa 37.4 mm 15.3°
2
1%
21:00
16°
996.5 hPa 39.0 mm 14.5°
3
1%
 05:01     22:01    Daglengte: 17:00 Maandag 02 Aug
00:00
13°
997.6 hPa 39.2 mm 12.9°
3
0%
03:00
12°
998.4 hPa 39.2 mm 11.9°
2
0%
06:00
12°
999.3 hPa 39.2 mm 11.2°
2
0%
09:00
15°
999.6 hPa 39.2 mm 12.2°
1
1%
12:00
17°
1000.3 hPa 39.5 mm 11.1°
2
1%
15:00
19°
1000.3 hPa 41.2 mm 11.5°
2
1%
18:00
17°
1001.2 hPa 43.6 mm 14.1°
3
1%
21:00
14°
1002.1 hPa 44.8 mm 12.6°
3
1%
 05:03     21:58    Daglengte: 16:55 Dinsdag 03 Aug
00:00
11°
1003.4 hPa 44.9 mm 10.8°
3
0%
03:00
12°
1004.6 hPa 44.9 mm 11.1°
3
0%
06:00
10°
1005.9 hPa 44.9 mm 9.8°
3
1%
09:00
13°
1007.1 hPa 44.9 mm 9.3°
2
1%
12:00
18°
1007.8 hPa 44.9 mm 4.2°
3
0%
15:00
18°
1008.4 hPa 44.9 mm 6.5°
4
0%
18:00
19°
1009.0 hPa 44.9 mm 4.6°
3
1%
21:00
15°
1010.1 hPa 44.9 mm 7.4°
3
1%
 05:06     21:55    Daglengte: 16:49 Woensdag 04 Aug
00:00
11°
1011.7 hPa 44.9 mm 6.9°
2
1%
03:00
Voelt als: 8.8°
1012.4 hPa 44.9 mm 6.2°
2
1%
06:00
10°
1012.6 hPa   6.5°
1
1%
09:00
15°
1013.0 hPa 89.7 mm 6.8°
1
1%
15:00
20°
1012.3 hPa 89.7 mm 5.5°
1
1%
21:00
16°
1012.4 hPa 90.0 mm 12.3°
3
0%
 05:09     21:53    Daglengte: 16:44 Donderdag 05 Aug
03:00
12°
1013.2 hPa 90.3 mm 11.8°
2
0%
09:00
17°
1013.4 hPa 90.3 mm 12.2°
3
1%
15:00
22°
1011.6 hPa 90.3 mm 8.1°
4
1%
21:00
18°
1010.6 hPa 90.3 mm 10.5°
3
1%
 05:11     21:50    Daglengte: 16:39 Vrijdag 06 Aug
03:00
15°
1009.5 hPa 90.4 mm 11.0°
4
1%
09:00
19°
1007.8 hPa 90.5 mm 12.3°
5
1%
15:00
23°
1006.5 hPa 90.7 mm 14.2°
5
1%
21:00
20°
1006.1 hPa 92.0 mm 16.5°
4
1%
 05:14     21:47    Daglengte: 16:33 Zaterdag 07 Aug
03:00
13°
1010.4 hPa 0.5 mm 10.9°
1
65%
09:00
17°
1009.6 hPa 0.6 mm 12.4°
2
67%
15:00
22°
1008.7 hPa 0.8 mm 12.6°
3
70%
21:00
17°
1008.3 hPa 2.3 mm 13.3°
2
79%
 05:16     21:44    Daglengte: 16:28 Zondag 08 Aug
03:00
14°
1008.5 hPa 0.5 mm 12.4°
2
72%
09:00
17°
1008.0 hPa 0.6 mm 13.6°
2
73%
15:00
21°
1008.1 hPa 1.4 mm 12.8°
2
75%
21:00
17°
1008.6 hPa 1.0 mm 13.2°
2
68%
 05:19     21:41    Daglengte: 16:22 Maandag 09 Aug
03:00
14°
1009.7 hPa 0.5 mm 12.3°
1
70%
09:00
17°
1010.2 hPa 0.4 mm 13.3°
2
69%
15:00
22°
1010.8 hPa 0.9 mm 12.8°
2
61%
21:00
18°
1011.1 hPa 1.1 mm 12.9°
1
63%
 05:22     21:38    Daglengte: 16:16 Dinsdag 10 Aug
03:00
13°
1012.0 hPa 0.4 mm 11.8°
1
68%
09:00
17°
1012.0 hPa 0.6 mm 12.8°
1
77%
15:00
21°
1012.1 hPa 0.7 mm 12.7°
1
75%
21:00
17°
1012.0 hPa 1.2 mm 13.1°
0
77%
 05:24     21:35    Daglengte: 16:11 Woensdag 11 Aug
03:00
14°
1012.7 hPa 0.3 mm 12.0°
0
58%
09:00
17°
1012.8 hPa 0.3 mm 12.7°
1
59%
15:00
22°
1012.4 hPa 0.6 mm 11.6°
0
64%
21:00
18°
1012.1 hPa 0.7 mm 12.3°
0
64%
 05:27     21:32    Daglengte: 16:05 Donderdag 12 Aug
03:00
13°
1012.3 hPa 0.2 mm 11.1°
0
66%
  CAPE Lifted Index Hail Supercell Tornado SRH 3km CL BTM PRES CL TOP PRES Swiss DWD icon SMHI TS
 04:48     22:14    Daglengte: 17:26 Vandaag
07:00 0 J/kg 0.9 K 0 % 0 % 0 % 0 m²/s² 0 0 5.34 3
08:00 0 J/kg 1.1 K 0 % 0 % 0 % 0 m²/s² 0 0 5 3
09:00 12 J/kg 0.5 K 0 % 0 % 0 % 0 m²/s² 0 0 4.31 3
10:00 0 J/kg -0.2 K 0 % 0 % 0 % 0 m²/s² 0 0 1.96 3
11:00 178 J/kg -0.8 K 0 % 0 % 0 % 0 m²/s² 0 0 -0.17 3
12:00 231 J/kg -0.8 K 0 % 0 % 0 % 0 m²/s² 0 0 -0.32 3
13:00 190 J/kg -0.7 K 0 % 0 % 0 % 0 m²/s² 0 0 -0.7 3
14:00 177 J/kg -0.7 K 0 % 0 % 0 % 0 m²/s² 0 0 -0.7 61
15:00 426 J/kg -1.6 K 0 % 0 % 0 % 0 m²/s² 0 0 -1.57 61
16:00 195 J/kg -0.9 K 0 % 0 % 0 % 0 m²/s² 0 0 -0.51 3
17:00 476 J/kg -1.7 K 0 % 0 % 0 % 0 m²/s² 0 0 -0.38 95
18:00 844 J/kg -2.8 K 0 % 0 % 0 % 0 m²/s² 0 0 -0.7 95
19:00 866 J/kg -2.9 K 0 % 0 % 0 % 0 m²/s² 0 0 -1.46 95
20:00 853 J/kg -2.9 K 0 % 0 % 0 % 0 m²/s² 0 0 -2.33 95
21:00 931 J/kg -3.5 K 0 % 0 % 0 % 0 m²/s² 0 0 -2.63 95
22:00 1012 J/kg -3.5 K 0 % 0 % 0 % 0 m²/s² 0 0 -1.58 80
23:00 548 J/kg -1.6 K 0 % 0 % 0 % 0 m²/s² 0 0 0.71 3
 04:51     22:12    Daglengte: 17:21 Morgen
00:00 141 J/kg -0.6 K 0 % 0 % 0 % 0 m²/s² 0 0 1.65 3
01:00 98 J/kg -0.4 K 0 % 0 % 0 % 0 m²/s² 0 0 1.64 80
02:00 41 J/kg 0.0 K 0 % 0 % 0 % 0 m²/s² 0 0 2.25 3
03:00 0 J/kg 0.4 K 0 % 0 % 0 % 0 m²/s² 0 0 3.49 2
04:00 6 J/kg 1.1 K 0 % 0 % 0 % 0 m²/s² 0 0 3.56 3
05:00 34 J/kg 0.4 K 0 % 0 % 0 % 0 m²/s² 0 0 2.86 2
06:00 18 J/kg 1.1 K 0 % 0 % 0 % 0 m²/s² 0 0 3.62 3
07:00 14 J/kg 0.9 K 0 % 0 % 0 % 0 m²/s² 0 0 2.94 3
08:00 43 J/kg 0.6 K 0 % 0 % 0 % 0 m²/s² 0 0 2.25 3
09:00 98 J/kg 0.2 K 0 % 0 % 0 % 0 m²/s² 0 0 1.58 80
10:00 233 J/kg -0.6 K 0 % 0 % 0 % 0 m²/s² 0 0 0.15 95
11:00 502 J/kg -1.6 K 0 % 0 % 0 % 0 m²/s² 0 0 -1.24 95
12:00 828 J/kg -2.2 K 0 % 0 % 0 % 0 m²/s² 0 0 -2.11 80
13:00 614 J/kg -1.9 K 0 % 0 % 0 % 0 m²/s² 0 0 -1.63 80
14:00 1006 J/kg -3.2 K 0 % 0 % 0 % 0 m²/s² 0 0 -2.72 61
15:00 802 J/kg -2.8 K 0 % 0 % 0 % 0 m²/s² 0 0 -2.32 61
16:00 998 J/kg -3.6 K 0 % 0 % 0 % 0 m²/s² 0 0 -3 61
17:00 794 J/kg -2.8 K 0 % 0 % 0 % 0 m²/s² 0 0 -1.27 61
18:00 360 J/kg -1.7 K 0 % 0 % 0 % 0 m²/s² 0 0 0.37 61
19:00 331 J/kg -1.2 K 0 % 0 % 0 % 0 m²/s² 0 0 0.87 80
20:00 337 J/kg -1.1 K 0 % 0 % 0 % 0 m²/s² 0 0 0.97 3
21:00 281 J/kg -0.7 K 0 % 0 % 0 % 0 m²/s² 0 0 2.69 3
22:00 190 J/kg -0.2 K 0 % 0 % 0 % 0 m²/s² 0 0 3.67 3
23:00 126 J/kg 0.2 K 0 % 0 % 0 % 0 m²/s² 0 0 5.18 2
 04:53     22:09    Daglengte: 17:16 Vrijdag 30 Jul
00:00 113 J/kg 0.5 K 0 % 0 % 0 % 0 m²/s² 0 0 5.24 2
01:00 158 J/kg 0.5 K 0 % 0 % 0 % 0 m²/s² 0 0 4.34 3
02:00 171 J/kg 0.9 K 0 % 0 % 0 % 0 m²/s² 0 0 5.04 2
03:00 168 J/kg 1.8 K 0 % 0 % 0 % 0 m²/s² 0 0 5.7 2
04:00 234 J/kg 2.0 K 0 % 0 % 0 % 0 m²/s² 0 0 5.48 2
05:00 191 J/kg 2.1 K 0 % 0 % 0 % 0 m²/s² 0 0 3.93 2
06:00 193 J/kg 0.9 K 0 % 0 % 0 % 0 m²/s² 0 0 2.73 2
07:00 202 J/kg 0.2 K 0 % 0 % 0 % 0 m²/s² 0 0 2.27 3
08:00 26 J/kg 0.1 K 0 % 0 % 0 % 0 m²/s² 0 0 2.98 2
09:00 170 J/kg -0.7 K 0 % 0 % 0 % 0 m²/s² 0 0 0.11 2
10:00 39 J/kg -0.8 K 0 % 0 % 0 % 0 m²/s² 0 0 0.46 1
11:00 238 J/kg -1.7 K 0 % 0 % 0 % 0 m²/s² 0 0 -0.74 2
12:00 476 J/kg -2.4 K 0 % 0 % 0 % 0 m²/s² 0 0 -0.39 2
13:00 581 J/kg -2.2 K 0 % 0 % 0 % 0 m²/s² 0 0 -1.75 2
14:00 62 J/kg -0.1 K 0 % 0 % 0 % 0 m²/s² 0 0 1.01 2
15:00 100 J/kg 0.5 K 0 % 0 % 0 % 0 m²/s² 0 0 0.74 3
16:00 81 J/kg -0.1 K 0 % 0 % 0 % 0 m²/s² 0 0 1.67 3
17:00 478 J/kg -1.7 K 0 % 0 % 0 % 0 m²/s² 0 0 -0.83 3
18:00 130 J/kg 0.1 K 0 % 0 % 0 % 0 m²/s² 0 0 0.34 3
19:00 135 J/kg -0.4 K 0 % 0 % 0 % 0 m²/s² 0 0 -0.07 3
20:00 233 J/kg -0.6 K 0 % 0 % 0 % 0 m²/s² 0 0 -0.42 3
21:00 66 J/kg -0.2 K 0 % 0 % 0 % 0 m²/s² 0 0 -0.17 2
22:00 89 J/kg 0.3 K 0 % 0 % 0 % 0 m²/s² 0 0 0.42 2
23:00 109 J/kg 0.5 K 0 % 0 % 0 % 0 m²/s² 0 0 0.59 2
 04:56     22:06    Daglengte: 17:10 Zaterdag 31 Jul
00:00 69 J/kg 0.8 K 0 % 0 % 0 % 0 m²/s² 0 0 0.8 2
01:00 26 J/kg 0.7 K 0 % 0 % 0 % 0 m²/s² 0 0 1.18 2
02:00 17 J/kg 0.5 K 0 % 0 % 0 % 0 m²/s² 0 0 1.34 2
03:00 16 J/kg 0.1 K 0 % 0 % 0 % 0 m²/s² 0 0 1.03 2
Temp Baro Wind Neerslag
  EWN Forecast EWN WRFDA DWD ICON FMI HIRLAM MET Norway GFS
 04:48     22:14    Daglengte: 17:26 Vandaag
09:00 23.3° 1009.0 hPa 3.1 m/s 0.0 mm 22.7° 1008.5 hPa 3.5 m/s 0.0 mm 23.0° 1009.0 hPa 3.3 m/s 0.0 mm 23.3° 1009.1 hPa 3.0 m/s 0.0 mm 22.4° 1009.7 hPa 3.2 m/s
12:00 24.5° 1007.7 hPa 3.9 m/s 0.0 mm 21.5° 1007.7 hPa 4.4 m/s 0.1 mm 23.4° 1007.7 hPa 3.9 m/s 0.0 mm 24.9° 1007.5 hPa 4.3 m/s 0.0 mm 25.5° 1008.0 hPa 3.5 m/s
15:00 20.9° 1006.8 hPa 4.7 m/s 3.4 mm 19.8° 1006.5 hPa 5.7 m/s 10.5 mm 20.7° 1006.9 hPa 5.7 m/s 1.3 mm 23.9° 1006.4 hPa 3.5 m/s 0.0 mm 20.4° 1007.3 hPa 3.9 m/s
18:00 20.8° 1004.9 hPa 4.7 m/s 6.7 mm 21.9° 1004.5 hPa 5.4 m/s 13.9 mm 20.4° 1004.7 hPa 4.5 m/s 2.4 mm 23.0° 1004.9 hPa 4.6 m/s 0.0 mm 19.6° 1006.2 hPa 4.6 m/s
21:00 19.9° 1003.5 hPa 4.0 m/s 3.6 mm 20.4° 1003.1 hPa 3.8 m/s 15.0 mm 19.8° 1003.6 hPa 4.2 m/s 4.1 mm 20.1° 1004.0 hPa 2.8 m/s 0.0 mm 17.9° 1004.3 hPa 3.7 m/s
 04:51     22:12    Daglengte: 17:21 Morgen
00:00 18.9° 1002.4 hPa 4.0 m/s 4.5 mm 16.1° 1002.8 hPa 2.6 m/s 17.2 mm 19.1° 1002.1 hPa 4.4 m/s 1.0 mm 18.8° 1003.6 hPa 2.0 m/s 0.0 mm 17.5° 1002.9 hPa 3.3 m/s
03:00 18.3° 1001.1 hPa 4.3 m/s 1.4 mm 14.5° 1001.0 hPa 2.5 m/s 17.4 mm 18.8° 1000.6 hPa 4.7 m/s 0.6 mm 17.8° 1002.9 hPa 3.0 m/s 0.0 mm 17.6° 1001.3 hPa 4.2 m/s
06:00 18.3° 999.9 hPa 3.9 m/s 0.0 mm 16.9° 1000.2 hPa 3.9 m/s 17.4 mm 18.5° 999.1 hPa 3.9 m/s 0.0 mm 17.6° 1001.6 hPa 2.4 m/s 0.0 mm 17.3° 1000.4 hPa 3.8 m/s
09:00 19.1° 998.7 hPa 4.2 m/s 1.6 mm 19.6° 999.3 hPa 3.7 m/s 17.5 mm 19.0° 997.6 hPa 4.6 m/s 1.2 mm 19.2° 1000.5 hPa 2.3 m/s 0.0 mm 19.3° 998.9 hPa 4.5 m/s
12:00 19.7° 998.2 hPa 4.9 m/s 6.0 mm 19.6° 999.2 hPa 5.5 m/s 19.1 mm 19.3° 997.2 hPa 4.9 m/s 2.5 mm 22.2° 999.4 hPa 3.4 m/s 0.0 mm 20.3° 998.5 hPa 5.5 m/s
15:00 19.4° 997.5 hPa 4.7 m/s 5.6 mm 21.1° 997.7 hPa 5.1 m/s 21.9 mm 18.6° 995.4 hPa 5.5 m/s 1.2 mm 19.6° 998.9 hPa 2.5 m/s 0.0 mm 21.9° 998.2 hPa 6.1 m/s
18:00 19.7° 996.9 hPa 5.8 m/s 3.7 mm 22.9° 996.9 hPa 5.4 m/s 32.1 mm 18.5° 993.5 hPa 7.0 m/s 3.6 mm 19.4° 998.1 hPa 3.5 m/s 0.0 mm 23.1° 997.7 hPa 5.9 m/s
21:00 19.4° 996.0 hPa 5.3 m/s 0.0 mm 20.1° 996.2 hPa 3.9 m/s 33.1 mm 18.6° 992.6 hPa 8.0 m/s 0.6 mm 19.3° 997.6 hPa 2.0 m/s 0.0 mm 19.6° 997.5 hPa 5.2 m/s
 04:53     22:09    Daglengte: 17:16 Vrijdag 30 Jul
00:00 17.7° 995.0 hPa 5.7 m/s 0.0 mm 15.7° 995.5 hPa 3.9 m/s 33.1 mm 17.7° 992.6 hPa 6.9 m/s 0.0 mm 16.4° 997.1 hPa 4.8 m/s
03:00 17.0° 994.1 hPa 5.2 m/s 0.0 mm 14.7° 994.4 hPa 4.0 m/s 33.1 mm 17.2° 992.3 hPa 5.7 m/s 0.0 mm 15.6° 995.9 hPa 5.3 m/s
06:00 16.0° 993.6 hPa 5.0 m/s 0.0 mm 14.9° 994.0 hPa 4.7 m/s 33.1 mm 15.9° 991.8 hPa 4.9 m/s 0.1 mm 14.4° 995.5 hPa 4.9 m/s
09:00 16.9° 992.8 hPa 5.7 m/s 4.2 mm 16.2° 993.4 hPa 7.1 m/s 33.1 mm 16.9° 991.5 hPa 5.5 m/s 0.0 mm 17.0° 994.1 hPa 5.3 m/s
12:00 18.4° 991.1 hPa 5.5 m/s 0.0 mm 16.9° 992.2 hPa 7.7 m/s 33.2 mm 18.7° 990.8 hPa 4.9 m/s 0.0 mm 16.6° 992.3 hPa 6.3 m/s
15:00 18.4° 990.7 hPa 4.2 m/s 0.0 mm 14.1° 993.2 hPa 4.7 m/s 43.9 mm 19.4° 990.1 hPa 4.1 m/s 0.1 mm 16.7° 992.4 hPa 6.0 m/s
18:00 18.2° 989.7 hPa 3.6 m/s 0.0 mm 14.8° 990.4 hPa 5.7 m/s 80.4 mm 19.1° 989.5 hPa 3.0 m/s 0.0 mm 14.3° 991.3 hPa 5.4 m/s
21:00 16.8° 988.8 hPa 3.5 m/s 0.0 mm 14.3° 986.0 hPa 7.1 m/s 94.3 mm 17.4° 989.5 hPa 2.6 m/s 0.0 mm 14.7° 988.6 hPa 6.2 m/s
 04:56     22:06    Daglengte: 17:10 Zaterdag 31 Jul
00:00 15.1° 988.2 hPa 3.0 m/s 0.0 mm 14.1° 981.7 hPa 0.3 m/s 131.7 mm 15.4° 989.8 hPa 3.7 m/s 0.0 mm 13.5° 986.9 hPa 5.0 m/s
03:00 14.8° 988.7 hPa 6.2 m/s 0.0 mm 13.1° 982.7 hPa 7.6 m/s 166.3 mm 15.2° 990.2 hPa 5.9 m/s 0.0 mm 13.2° 987.1 hPa 4.4 m/s
06:00 13.7° 989.6 hPa 5.1 m/s 29.6 mm 13.7° 989.6 hPa 5.1 m/s 29.6 mm
09:00 14.4° 992.7 hPa 4.5 m/s 29.8 mm 14.4° 992.7 hPa 4.5 m/s 29.8 mm
12:00 18.9° 994.3 hPa 4.8 m/s 30.0 mm 18.9° 994.3 hPa 4.8 m/s 30.0 mm
15:00 19.1° 996.1 hPa 4.0 m/s 30.1 mm 19.1° 996.1 hPa 4.0 m/s 30.1 mm
18:00 18.7° 997.2 hPa 2.7 m/s 30.2 mm 18.7° 997.2 hPa 2.7 m/s 30.2 mm
21:00 17.4° 997.9 hPa 3.0 m/s 30.2 mm 17.4° 997.9 hPa 3.0 m/s 30.2 mm
 04:58     22:04    Daglengte: 17:06 Zondag 01 Aug
00:00 13.3° 998.8 hPa 2.2 m/s 30.2 mm 13.3° 998.8 hPa 2.2 m/s 30.2 mm
03:00 12.0° 998.3 hPa 1.0 m/s 30.2 mm 12.0° 998.3 hPa 1.0 m/s 30.2 mm
06:00 12.6° 997.3 hPa 1.8 m/s 30.2 mm 12.6° 997.3 hPa 1.8 m/s 30.2 mm
09:00 16.1° 996.0 hPa 2.5 m/s 30.2 mm 16.1° 996.0 hPa 2.5 m/s 30.2 mm
12:00 17.1° 995.3 hPa 2.1 m/s 30.8 mm 17.1° 995.3 hPa 2.1 m/s 30.8 mm
15:00 18.2° 995.0 hPa 0.7 m/s 33.4 mm 18.2° 995.0 hPa 0.7 m/s 33.4 mm
18:00 17.2° 995.4 hPa 2.5 m/s 37.4 mm 17.2° 995.4 hPa 2.5 m/s 37.4 mm
21:00 16.0° 996.5 hPa 2.5 m/s 39.0 mm 16.0° 996.5 hPa 2.5 m/s 39.0 mm
 05:01     22:01    Daglengte: 17:00 Maandag 02 Aug
00:00 13.5° 997.6 hPa 2.5 m/s 39.2 mm 13.5° 997.6 hPa 2.5 m/s 39.2 mm
03:00 12.4° 998.4 hPa 2.3 m/s 39.2 mm 12.4° 998.4 hPa 2.3 m/s 39.2 mm
06:00 11.9° 999.3 hPa 1.6 m/s 39.2 mm 11.9° 999.3 hPa 1.6 m/s 39.2 mm
09:00 14.7° 999.6 hPa 1.4 m/s 39.2 mm 14.7° 999.6 hPa 1.4 m/s 39.2 mm
12:00 17.4° 1000.3 hPa 1.8 m/s 39.5 mm 17.4° 1000.3 hPa 1.8 m/s 39.5 mm
15:00 18.6° 1000.3 hPa 2.5 m/s 41.2 mm 18.6° 1000.3 hPa 2.5 m/s 41.2 mm
18:00 17.1° 1001.2 hPa 3.3 m/s 43.6 mm 17.1° 1001.2 hPa 3.3 m/s 43.6 mm
21:00 14.2° 1002.1 hPa 3.0 m/s 44.8 mm 14.2° 1002.1 hPa 3.0 m/s 44.8 mm
 05:03     21:58    Daglengte: 16:55 Dinsdag 03 Aug
00:00 11.2° 1003.4 hPa 2.6 m/s 44.9 mm 11.2° 1003.4 hPa 2.6 m/s 44.9 mm
03:00 11.7° 1004.6 hPa 2.5 m/s 44.9 mm 11.7° 1004.6 hPa 2.5 m/s 44.9 mm
06:00 10.3° 1005.9 hPa 2.7 m/s 44.9 mm 10.3° 1005.9 hPa 2.7 m/s 44.9 mm
09:00 13.2° 1007.1 hPa 2.3 m/s 44.9 mm 13.3° 1007.1 hPa 2.3 m/s 44.9 mm
12:00 18.5° 1007.8 hPa 2.6 m/s 44.9 mm 18.5° 1007.8 hPa 2.6 m/s 44.9 mm
15:00 18.0° 1008.4 hPa 3.7 m/s 44.9 mm 18.0° 1008.4 hPa 3.7 m/s 44.9 mm
18:00 19.0° 1009.0 hPa 2.7 m/s 44.9 mm 19.0° 1009.0 hPa 2.7 m/s 44.9 mm
21:00 14.8° 1010.1 hPa 3.3 m/s 44.9 mm 14.8° 1010.1 hPa 3.3 m/s 44.9 mm
 05:06     21:55    Daglengte: 16:49 Woensdag 04 Aug
00:00 10.9° 1011.7 hPa 2.5 m/s 44.9 mm 10.9° 1011.7 hPa 2.5 m/s 44.9 mm
03:00 9.4° 1012.4 hPa 1.6 m/s 44.9 mm 9.4° 1012.4 hPa 1.6 m/s 44.9 mm
06:00 10.1° 1012.6 hPa 1.1 m/s 44.9 mm 10.1° 1012.6 hPa 1.1 m/s 44.9 mm
09:00 14.7° 1013.0 hPa 1.3 m/s 44.9 mm 14.7° 1013.0 hPa 1.3 m/s 44.9 mm
15:00 20.0° 1012.3 hPa 1.2 m/s 44.9 mm 20.0° 1012.3 hPa 1.2 m/s 44.9 mm
21:00 15.7° 1012.4 hPa 2.9 m/s 45.2 mm 15.7° 1012.4 hPa 2.9 m/s 45.2 mm
 05:09     21:53    Daglengte: 16:44 Donderdag 05 Aug
03:00 12.5° 1013.2 hPa 2.5 m/s 45.2 mm 12.5° 1013.2 hPa 2.5 m/s 45.2 mm
09:00 16.6° 1013.4 hPa 2.9 m/s 45.2 mm 16.6° 1013.4 hPa 2.9 m/s 45.2 mm
15:00 21.7° 1011.6 hPa 4.0 m/s 45.2 mm 21.7° 1011.6 hPa 4.0 m/s 45.2 mm
21:00 17.5° 1010.6 hPa 2.6 m/s 45.2 mm 17.5° 1010.6 hPa 2.6 m/s 45.2 mm
 05:11     21:50    Daglengte: 16:39 Vrijdag 06 Aug
03:00 15.3° 1009.5 hPa 4.2 m/s 45.2 mm 15.3° 1009.5 hPa 4.2 m/s 45.2 mm
09:00 18.7° 1007.8 hPa 5.2 m/s 45.3 mm 18.7° 1007.8 hPa 5.2 m/s 45.3 mm
15:00 22.5° 1006.5 hPa 5.2 m/s 45.4 mm 22.5° 1006.5 hPa 5.2 m/s 45.4 mm
21:00 19.7° 1006.1 hPa 3.7 m/s 46.3 mm 19.7° 1006.1 hPa 3.7 m/s 46.3 mm
 05:14     21:47    Daglengte: 16:33 Zaterdag 07 Aug
03:00 13.0° 1010.4 hPa 1.4 m/s 0.5 mm
09:00 16.6° 1009.6 hPa 2.3 m/s 0.6 mm
15:00 21.7° 1008.7 hPa 3.2 m/s 0.8 mm
21:00 17.4° 1008.3 hPa 2.1 m/s 2.3 mm
 05:16     21:44    Daglengte: 16:28 Zondag 08 Aug
03:00 14.2° 1008.5 hPa 2.1 m/s 0.5 mm
09:00 16.7° 1008.0 hPa 2.1 m/s 0.6 mm
15:00 21.3° 1008.1 hPa 2.1 m/s 1.4 mm
21:00 17.4° 1008.6 hPa 1.6 m/s 1.0 mm
 05:19     21:41    Daglengte: 16:22 Maandag 09 Aug
03:00 14.0° 1009.7 hPa 1.4 m/s 0.5 mm
09:00 16.9° 1010.2 hPa 1.5 m/s 0.4 mm
15:00 21.9° 1010.8 hPa 1.9 m/s 0.9 mm
21:00 17.5° 1011.1 hPa 1.1 m/s 1.1 mm
 05:22     21:38    Daglengte: 16:16 Dinsdag 10 Aug
03:00 13.5° 1012.0 hPa 0.6 m/s 0.4 mm
09:00 16.6° 1012.0 hPa 1.0 m/s 0.6 mm
15:00 21.5° 1012.1 hPa 1.0 m/s 0.7 mm
21:00 17.3° 1012.0 hPa 0.5 m/s 1.2 mm
 05:24     21:35    Daglengte: 16:11 Woensdag 11 Aug
03:00 13.7° 1012.7 hPa 0.3 m/s 0.3 mm
09:00 16.7° 1012.8 hPa 0.5 m/s 0.3 mm
15:00 21.8° 1012.4 hPa 0.4 m/s 0.6 mm
21:00 17.5° 1012.1 hPa 0.3 m/s 0.7 mm
 05:27     21:32    Daglengte: 16:05 Donderdag 12 Aug
03:00 13.4° 1012.3 hPa 0.4 m/s 0.2 mm
FMI Hirlam - 7.5 km EWN WRFDA - 12 km DWD ICON - 7 km GFS - 25 km Basiskaart






























































Updatetijd (Europe/Amsterdam) Resolutie Lengte Stap
FMI Hirlam 01:45, 07:45, 13:45, 19:45 7.5 km 49h 1h
EWN WRFDA 22:30, 04:30, 10:30, 16:30 12 km 73h 1h
DWD ICON 00:00, 06:00, 12:00, 18:00 7 km 75h 1h
GFS 02:15, 08:15, 14:15, 20:15 25 km 237h 3h
30+ mm
25-30 mm
20-25 mm
15-20 mm
10-15 mm
6-10 mm
4-6 mm
2-4 mm
1-2 mm
0.5-1 mm
0.2-0.5 mm
0.1-0.2 mm
30+ mm
25-30 mm
20-25 mm
15-20 mm
10-15 mm
6-10 mm
4-6 mm
2-4 mm
1-2 mm
0.5-1 mm
0.2-0.5 mm
0.1-0.2 mm
Sneeuwval
Natte sneeuw
Hagel
Vorst
30+ mm
25-30 mm
20-25 mm
15-20 mm
10-15 mm
6-10 mm
4-6 mm
2-4 mm
1-2 mm
0.5-1 mm
0.2-0.5 mm
0.1-0.2 mm
Sneeuwval
Natte sneeuw
Hagel
Vorst
Onweer